| time (UTC) | temp C | wind direction | speed KPH | gust KPH | rain 1hr cm | rain 24hr cm | rain mn cm | humidity % | barometer mb |
| 20260505035421 | 11 | 0.0 | 0.0 | 0.00 | 0.00 | 0.00 | 46 | 1015.8 | |
| 20260505034424 | 11 | 39 | 3.2 | 4.8 | 0.00 | 0.00 | 0.00 | 46 | 1015.9 |
| 20260505033424 | 11 | 33 | 3.2 | 4.8 | 0.00 | 0.00 | 0.00 | 45 | 1015.7 |
| 20260505032426 | 12 | 355 | 8.0 | 11.3 | 0.00 | 0.00 | 0.00 | 44 | 1015.6 |
| 20260505031427 | 12 | 18 | 6.4 | 9.7 | 0.00 | 0.00 | 0.00 | 44 | 1015.6 |
| 20260505030431 | 12 | 21 | 9.7 | 14.5 | 0.00 | 0.00 | 0.00 | 44 | 1015.4 |
| 20260505025420 | 12 | 3 | 9.7 | 9.7 | 0.00 | 0.00 | 0.00 | 46 | 1015.6 |
| 20260505024423 | 12 | 21 | 8.0 | 11.3 | 0.00 | 0.00 | 0.00 | 44 | 1015.3 |
| 20260505023423 | 12 | 15 | 11.3 | 12.9 | 0.00 | 0.00 | 0.00 | 43 | 1015.3 |
| 20260505022425 | 13 | 6 | 14.5 | 19.3 | 0.00 | 0.00 | 0.00 | 42 | 1015.3 |
| 20260505021426 | 13 | 356 | 11.3 | 12.9 | 0.00 | 0.00 | 0.00 | 43 | 1015.1 |
| 20260505020431 | 13 | 13 | 14.5 | 16.1 | 0.00 | 0.00 | 0.00 | 42 | 1014.9 |
| 20260505015432 | 14 | 351 | 12.9 | 16.1 | 0.00 | 0.00 | 0.00 | 42 | 1015.2 |
| 20260505014420 | 14 | 16 | 17.7 | 20.9 | 0.00 | 0.00 | 0.00 | 41 | 1015.1 |
| 20260505013423 | 15 | 6 | 11.3 | 20.9 | 0.00 | 0.00 | 0.00 | 43 | 1015.2 |
| 20260505012444 | -17 | 4 | 11.3 | 14.5 | 0.00 | 0.00 | 0.00 | 1015.1 | |
| 20260505011424 | 14 | 24 | 14.5 | 16.1 | 0.00 | 0.00 | 0.00 | 41 | 1015.1 |
| 20260505010426 | 15 | 352 | 17.7 | 22.5 | 0.00 | 0.00 | 0.00 | 42 | 1015.0 |
| 20260505005428 | 15 | 340 | 20.9 | 25.7 | 0.00 | 0.00 | 0.00 | 40 | 1015.0 |
| 20260505004425 | 16 | 2 | 17.7 | 20.9 | 0.00 | 0.00 | 0.00 | 40 | 1014.8 |
| 20260505003420 | 16 | 5 | 16.1 | 20.9 | 0.00 | 0.00 | 0.00 | 39 | 1015.0 |
| 20260505002444 | 16 | 0 | 17.7 | 22.5 | 0.00 | 0.00 | 0.00 | 39 | 1015.0 |
| 20260505001423 | 15 | 30 | 12.9 | 16.1 | 0.00 | 0.00 | 0.00 | 41 | 1015.1 |
| 20260505000425 | 16 | 33 | 14.5 | 17.7 | 0.00 | 0.00 | 0.00 | 40 | 1015.0 |
| 20260504235426 | 16 | 20 | 12.9 | 14.5 | 0.00 | 0.00 | 0.00 | 39 | 1014.9 |
| 20260504234424 | 16 | 41 | 19.3 | 22.5 | 0.00 | 0.00 | 0.00 | 39 | 1014.7 |
| 20260504233431 | 16 | 358 | 17.7 | 22.5 | 0.00 | 0.00 | 0.00 | 39 | 1014.7 |
| 20260504232420 | 16 | 332 | 17.7 | 29.0 | 0.00 | 0.00 | 0.00 | 41 | 1014.8 |
| 20260504231425 | 17 | 349 | 22.5 | 27.4 | 0.00 | 0.00 | 0.00 | 39 | 1014.9 |
| 20260504230423 | 16 | 1 | 14.5 | 17.7 | 0.00 | 0.00 | 0.00 | 39 | 1014.7 |
| 20260504225425 | 17 | 31 | 12.9 | 16.1 | 0.00 | 0.00 | 0.00 | 39 | 1014.6 |
| 20260504224426 | 17 | 33 | 16.1 | 17.7 | 0.00 | 0.00 | 0.00 | 39 | 1014.7 |
| 20260504223424 | 17 | 43 | 17.7 | 20.9 | 0.00 | 0.00 | 0.00 | 37 | 1014.8 |
| 20260504222445 | 17 | 37 | 20.9 | 25.7 | 0.00 | 0.00 | 0.00 | 38 | 1014.8 |
| 20260504221423 | 17 | 347 | 14.5 | 17.7 | 0.00 | 0.00 | 0.00 | 37 | 1014.8 |
| 20260504220422 | 19 | 19 | 12.9 | 14.5 | 0.00 | 0.00 | 0.00 | 36 | 1014.7 |
| 20260504215423 | 18 | 17 | 16.1 | 20.9 | 0.00 | 0.00 | 0.00 | 34 | 1014.7 |
| 20260504214425 | 18 | 20 | 12.9 | 14.5 | 0.00 | 0.00 | 0.00 | 36 | 1014.6 |
| 20260504213428 | 17 | 319 | 12.9 | 14.5 | 0.00 | 0.00 | 0.00 | 37 | 1014.6 |
| 20260504212432 | 19 | 19.3 | 27.4 | 0.00 | 0.00 | 0.00 | 33 | 1014.6 | |
| 20260504211425 | 20 | 314 | 8.0 | 9.7 | 0.00 | 0.00 | 0.00 | 32 | 1014.5 |
| 20260504210442 | 18 | 43 | 6.4 | 9.7 | 0.00 | 0.00 | 0.00 | 36 | 1014.7 |
| 20260504205422 | 18 | 33 | 6.4 | 9.7 | 0.00 | 0.00 | 0.00 | 34 | 1014.6 |
| 20260504204424 | 20 | 7 | 3.2 | 6.4 | 0.00 | 0.00 | 0.00 | 36 | 1014.7 |
| 20260504203425 | 18 | 32 | 8.0 | 11.3 | 0.00 | 0.00 | 0.00 | 35 | 1014.6 |
| 20260504202423 | 18 | 34 | 9.7 | 12.9 | 0.00 | 0.00 | 0.00 | 36 | 1014.5 |
| 20260504201445 | 18 | 325 | 6.4 | 9.7 | 0.00 | 0.00 | 0.00 | 35 | 1014.9 |
| 20260504200429 | 17 | 360 | 9.7 | 12.9 | 0.00 | 0.00 | 0.00 | 36 | 1014.8 |
| 20260504195441 | 19 | 326 | 11.3 | 17.7 | 0.00 | 0.00 | 0.00 | 34 | 1014.8 |
| 20260504194442 | 18 | 33 | 6.4 | 8.0 | 0.00 | 0.00 | 0.00 | 33 | 1014.8 |
| 20260504193423 | 18 | 89 | 8.0 | 12.9 | 0.00 | 0.00 | 0.00 | 35 | 1014.9 |
| 20260504192428 | 17 | 36 | 6.4 | 6.4 | 0.00 | 0.00 | 0.00 | 37 | 1014.9 |
| 20260504191424 | 17 | 55 | 6.4 | 6.4 | 0.00 | 0.00 | 0.00 | 36 | 1015.0 |
| 20260504190428 | 17 | 110 | 9.7 | 11.3 | 0.00 | 0.00 | 0.00 | 35 | 1015.0 |
| 20260504185429 | 17 | 81 | 4.8 | 8.0 | 0.00 | 0.00 | 0.00 | 36 | 1015.0 |
| 20260504184421 | 17 | 350 | 11.3 | 11.3 | 0.00 | 0.00 | 0.00 | 38 | 1015.2 |
| 20260504183423 | 17 | 358 | 6.4 | 8.0 | 0.00 | 0.00 | 0.00 | 37 | 1015.2 |
| 20260504182423 | 16 | 346 | 16.1 | 20.9 | 0.00 | 0.00 | 0.00 | 38 | 1015.2 |
| 20260504181426 | 18 | 344 | 9.7 | 16.1 | 0.00 | 0.00 | 0.00 | 36 | 1015.2 |
| 20260504180426 | 17 | 71 | 9.7 | 11.3 | 0.00 | 0.00 | 0.00 | 38 | 1015.2 |
| 20260504175429 | 18 | 103 | 6.4 | 8.0 | 0.00 | 0.00 | 0.00 | 35 | 1015.2 |
| 20260504174430 | 18 | 338 | 14.5 | 16.1 | 0.00 | 0.00 | 0.00 | 38 | 1015.3 |
| 20260504173444 | 18 | 287 | 9.7 | 11.3 | 0.00 | 0.00 | 0.00 | 37 | 1015.4 |
| 20260504172424 | 20 | 63 | 3.2 | 3.2 | 0.00 | 0.00 | 0.00 | 31 | 1015.4 |
| 20260504171423 | 18 | 150 | 8.0 | 9.7 | 0.00 | 0.00 | 0.00 | 35 | 1015.5 |
| 20260504170425 | 17 | 178 | 11.3 | 12.9 | 0.00 | 0.00 | 0.00 | 36 | 1015.5 |
| 20260504160424 | 16 | 97 | 0.0 | 1.6 | 0.00 | 0.00 | 0.00 | 37 | 1015.6 |
| 20260504150422 | 15 | 161 | 3.2 | 4.8 | 0.00 | 0.00 | 0.00 | 48 | 1015.9 |
| 20260504140421 | 10 | 145 | 1.6 | 3.2 | 0.00 | 0.00 | 0.00 | 66 | 1015.8 |
| 20260504130419 | 6 | 90 | 3.2 | 3.2 | 0.00 | 0.00 | 0.00 | 72 | 1015.0 |
| 20260504110427 | 7 | 238 | 3.2 | 3.2 | 0.00 | 0.00 | 0.00 | 66 | 1014.1 |
| 20260504100426 | 9 | 1.6 | 3.2 | 0.00 | 0.00 | 0.00 | 57 | 1013.2 | |
| 20260504081443 | 14 | 334 | 12.9 | 14.5 | 0.00 | 0.00 | 0.00 | 44 | 1012.0 |
| 20260504080422 | 14 | 339 | 14.5 | 17.7 | 0.00 | 0.00 | 0.00 | 44 | 1011.9 |
| 20260504050449 | 11 | 12 | 1.6 | 3.2 | 0.00 | 0.00 | 0.00 | 68 | 1010.5 |
| 20260504045419 | 11 | 0.0 | 0.0 | 0.00 | 0.00 | 0.00 | 69 | 1010.3 | |
| 20260504044421 | 12 | 134 | 0.0 | 1.6 | 0.00 | 0.00 | 0.00 | 66 | 1010.3 |
| 20260504043423 | 12 | 0.0 | 0.0 | 0.00 | 0.00 | 0.00 | 67 | 1010.3 | |
| 20260504042423 | 13 | 0.0 | 0.0 | 0.00 | 0.00 | 0.00 | 64 | 1010.4 | |
| 20260504041425 | 13 | 64 | 4.8 | 4.8 | 0.00 | 0.00 | 0.00 | 63 | 1010.3 |
| 20260504040426 | 14 | 0.0 | 0.0 | 0.00 | 0.00 | 0.00 | 64 | 1010.2 |